Location: Lombard
(41.8800°N, 88.0080°W)
Time: 02:47:37
(UTC-05:00)

BEESAT - Visible Passes

Search period start: 16 May 2022 00:00
Search period end: 26 May 2022 00:00
Orbit: 699 x 708 km, 98.6° (Epoch: 15 May)

Date Brightness Start Highest point End Pass type
(mag) Time Alt. Az. Time Alt. Az. Time Alt. Az.
16 May ? 21:30:10 10° N 21:34:52 63° WNW 21:39:32 10° SSW visible
17 May ? 20:35:43 10° NNE 20:40:06 36° E 20:44:27 10° SSE visible
17 May ? 22:13:48 10° NNW 22:17:38 25° WNW 22:21:25 10° WSW visible
18 May ? 21:18:25 10° NNE 21:23:12 83° WNW 21:27:55 10° SSW visible
19 May ? 22:01:50 10° N 22:06:01 31° WNW 22:10:11 10° SW visible
20 May ? 21:06:43 10° NNE 21:11:29 75° ESE 21:16:13 10° S visible
20 May ? 22:46:24 10° NNW 22:48:34 13° WNW 22:50:45 10° W visible
21 May ? 21:49:57 10° N 21:54:23 41° WNW 21:58:49 10° SW visible
22 May ? 20:55:04 10° NNE 20:59:45 56° E 21:04:24 10° S visible
22 May ? 22:34:01 10° NNW 22:37:01 17° WNW 22:40:00 10° WSW visible
23 May ? 21:38:05 10° N 21:42:43 54° WNW 21:47:19 10° SSW visible
24 May ? 20:43:28 10° NNE 20:48:00 42° E 20:52:29 10° S visible
24 May ? 22:21:51 10° NNW 22:25:25 22° WNW 22:28:59 10° WSW visible
25 May ? 21:26:18 10° N 21:31:02 71° WNW 21:35:44 10° SSW visible
